Christchurch, New Zealand

11:29 PM NZST on June 27, 2017 (GMT +1200)
Christchurch

Weather History for 93780 - September, 2013

Change the Weather History Date:

Monday, September 23, 2013

  Actual Average Record
Temperature  
Mean Temperature 50 °F -  
Max Temperature 57 °F 58 °F - ()
Min Temperature 44 °F 40 °F - ()
Degree Days  
Heating Degree Days 14    
Moisture  
Dew Point 49 °F    
Average Humidity 92    
Maximum Humidity 100    
Minimum Humidity 82    
Precipitation  
Precipitation 0.00 in - - ()
Sea Level Pressure  
Sea Level Pressure 29.86 in    
Wind  
Wind Speed 5 mph ()    
Max Wind Speed 12 mph    
Max Gust Speed -    
Visibility 5.6 miles    
Events Fog , Rain    
T = Trace of Precipitation, MM = Missing Value Source: Averaged Metar Reports

Daily Weather History Graph

Daily Weather History Graph

Search for Another Location

Airport or City:

Trip Planner

Search our weather history database for the weather conditions in past years. The results will help you decide how hot, cold, wet, or windy it might be!

Date:

Astronomy

Sep. 23, 2013 Rise Set
Actual Time 6:17 AM NZST 6:27 PM NZST
Civil Twilight 5:49 AM NZST 6:55 PM NZST
Nautical Twilight 5:16 AM NZST 7:29 PM NZST
Astronomical Twilight 4:41 AM NZST 8:03 PM NZST
Moon 10:33 PM NZST (9/23) 7:59 AM NZST (9/23)
Length of Visible Light 13h 06m
Length of Day
12h 09m
Waning Gibbous, 86% of the Moon is Illuminated
Sep 23
Waning Gibbous
Sep 27
Last Quarter
Oct 5
New
Oct 12
First Quarter
Oct 19
Full

Hourly Weather History & Observations

Time (NZST) Temp. Windchill Dew Point Humidity Pressure Visibility Wind Dir Wind Speed Gust Speed Precip Events Conditions
12:00 AM 46.4 °F 45.2 °F 46.4 °F 100% 29.65 in - West 3.5 mph - N/A   Mostly Cloudy
12:30 AM 48.2 °F - 48.2 °F 100% 29.65 in 3.1 mi West 3.5 mph - N/A   Mostly Cloudy
1:00 AM 48.2 °F - 46.4 °F 93% 29.65 in 5.0 mi West 3.5 mph - N/A   Overcast
1:30 AM 44.6 °F 43.1 °F 44.6 °F 100% 29.68 in 3.7 mi West 3.5 mph - N/A   Overcast
2:00 AM 46.4 °F 45.2 °F 46.4 °F 100% 29.68 in - SW 3.5 mph - N/A Fog Fog
2:30 AM 44.6 °F 43.1 °F 44.6 °F 100% 29.68 in 1.2 mi SW 3.5 mph - N/A   Mostly Cloudy
3:00 AM 44.6 °F - 44.6 °F 100% 29.68 in 1.2 mi West 2.3 mph - N/A   Overcast
3:30 AM 44.6 °F - 44.6 °F 100% 29.68 in 3.1 mi WNW 2.3 mph - N/A Rain Light Rain
4:00 AM 46.4 °F 45.2 °F 44.6 °F 93% 29.68 in 4.3 mi WNW 3.5 mph - N/A   Light Drizzle
4:30 AM 46.4 °F 45.2 °F 46.4 °F 100% 29.71 in 3.7 mi NW 3.5 mph - N/A   Overcast
5:00 AM 46.4 °F - 46.4 °F 100% 29.71 in 5.0 mi WNW 2.3 mph - N/A   Overcast
5:30 AM 46.4 °F - 46.4 °F 100% 29.71 in 5.6 mi WNW 1.2 mph - N/A   Overcast
6:00 AM 46.4 °F - 46.4 °F 100% 29.74 in 5.6 mi Calm Calm - N/A   Drizzle
6:30 AM 46.4 °F - 46.4 °F 100% 29.74 in 5.0 mi Calm Calm - N/A   Overcast
7:00 AM 46.4 °F - 46.4 °F 100% 29.77 in 5.0 mi WNW 1.2 mph - N/A   Overcast
7:30 AM 48.2 °F - 48.2 °F 100% 29.77 in 6.2 mi West 2.3 mph - N/A   Overcast
8:00 AM 48.2 °F - 48.2 °F 100% 29.80 in 6.2 mi Calm Calm - N/A   Mostly Cloudy
8:30 AM 51.8 °F - 50.0 °F 94% 29.80 in 6.2 mi WSW 2.3 mph - N/A   Mostly Cloudy
9:00 AM 53.6 °F - 51.8 °F 94% 29.83 in 6.2 mi SW 2.3 mph - N/A   Scattered Clouds
9:30 AM 55.4 °F - 51.8 °F 88% 29.83 in 6.2 mi SSW 8.1 mph - N/A   Unknown
10:00 AM 57.2 °F - 51.8 °F 82% 29.83 in 6.2 mi SSW 11.5 mph - N/A   Unknown
10:30 AM 55.4 °F - 51.8 °F 88% 29.83 in 6.2 mi SSW 9.2 mph - N/A   Scattered Clouds
11:00 AM 57.2 °F - 53.6 °F 88% 29.86 in 6.2 mi SSW 10.4 mph - N/A   Mostly Cloudy
11:30 AM 55.4 °F - 51.8 °F 88% 29.86 in 6.2 mi SW 11.5 mph - N/A   Mostly Cloudy
12:00 PM 55.4 °F - 51.8 °F 88% 29.89 in 6.2 mi SW 10.4 mph - N/A   Mostly Cloudy
12:30 PM 55.4 °F - 51.8 °F 88% 29.89 in 6.2 mi SSW 11.5 mph - N/A   Overcast
1:00 PM 55.4 °F - 51.8 °F 88% 29.89 in 6.2 mi South 11.5 mph - N/A   Overcast
1:30 PM 55.4 °F - 51.8 °F 88% 29.89 in 6.2 mi SSW 11.5 mph - N/A   Mostly Cloudy
2:00 PM 57.2 °F - 51.8 °F 82% 29.89 in 6.2 mi SW 5.8 mph - N/A   Mostly Cloudy
2:30 PM 55.4 °F - 51.8 °F 88% 29.89 in 6.2 mi NE 10.4 mph - N/A   Overcast
3:00 PM 55.4 °F - 51.8 °F 88% 29.92 in 6.2 mi NNE 8.1 mph - N/A   Overcast
3:30 PM 55.4 °F - 51.8 °F 88% 29.92 in 6.2 mi NNE 9.2 mph - N/A   Overcast
4:00 PM 55.4 °F - 51.8 °F 88% 29.92 in 6.2 mi NNE 10.4 mph - N/A   Overcast
4:30 PM 53.6 °F - 50.0 °F 88% 29.95 in 6.2 mi NNE 11.5 mph - N/A   Mostly Cloudy
5:00 PM 51.8 °F - 50.0 °F 94% 29.95 in 6.2 mi NE 11.5 mph - N/A   Overcast
5:30 PM 51.8 °F - 48.2 °F 88% 29.98 in 6.2 mi NE 10.4 mph - N/A   Overcast
6:00 PM 51.8 °F - 48.2 °F 88% 29.98 in 6.2 mi NE 9.2 mph - N/A   Overcast
6:30 PM 51.8 °F - 48.2 °F 88% 30.01 in 6.2 mi NE 8.1 mph - N/A   Overcast
7:00 PM 51.8 °F - 48.2 °F 88% 30.04 in 6.2 mi NE 8.1 mph - N/A   Overcast
7:30 PM 51.8 °F - 48.2 °F 88% 30.04 in 6.2 mi NE 8.1 mph - N/A Rain Light Rain Showers
8:00 PM 51.8 °F - 48.2 °F 88% 30.04 in 6.2 mi NE 8.1 mph - N/A Rain Light Rain Showers
8:30 PM 51.8 °F - 50.0 °F 94% 30.06 in 6.2 mi NE 5.8 mph - N/A   Overcast
9:00 PM 51.8 °F - 48.2 °F 88% 30.06 in 6.2 mi NE 5.8 mph - N/A   Overcast
9:30 PM 51.8 °F - 48.2 °F 88% 30.09 in 6.2 mi East 3.5 mph - N/A   Overcast
10:00 PM 51.8 °F - 48.2 °F 88% 30.09 in 6.2 mi ENE 3.5 mph - N/A   Overcast
10:30 PM 51.8 °F - 48.2 °F 88% 30.09 in 6.2 mi ENE 3.5 mph - N/A   Overcast
11:00 PM 51.8 °F - 48.2 °F 88% 30.09 in 6.2 mi ENE 2.3 mph - N/A   Mostly Cloudy
11:30 PM 51.8 °F - 48.2 °F 88% 30.09 in 6.2 mi ENE 2.3 mph - N/A   Overcast